Showing default

PICO-02D024, 60569

Orbit data source: Space-Track

PICO-02D024, 60569 is a payload satellite owned by Apogeo Space (IT) in SSO that was launched on Fri, 16 Aug 2024 UTC via an FALCON 9 launch vehicle from the Air Force Western Test Range (AFWTR). Payload-class satellites include a variety of spacecraft equipped with specific instruments for various scientific and technological missions. These include communications satellites like Starlink; space stations such as the ISS; scientific satellites like the Hubble; Earth observation satellites from companies like Planet Labs, Umbra, and HawkEye 360; GPS; miniature CubeSats for education and research; and military/defense satellites.

Loading next visibility...
Identifier
60569, 2024-149DF
Orbit
SSO
Country
Flag of ITIT
Related business
Manufacturer
Apogeo Space
Mission
Operational Commercial Communications
Bus & Motor
CUBESAT 0.3U, Unknown motor
Mass
0.5 kg wet, 0.5 kg dry
Launch date (UTC)
2024-08-16 (1 year ago)
Launch vehicle
FALCON 9
Launch site
Air Force Western Test Range (AFWTR)
Object type
Payload
Rocket body
Debris
Shape & HBR
Box, 0.1 m
Radar Cross Section
0.008 m², Medium (>0.1 m² and < 1m²)

Expand to show TLE details & history
Last TLE update: 6 hours ago

TLE from 6 hours ago
0 PICO-02D024
1 60569U 24149DF  25297.80090653  .00115331  00000-0  33877-2 0  9996
2 60569  97.7036  23.4881 0002600 253.9078 106.1878 15.34662685 65523
Epoch: 2025-10-24T19:13Z
TLE epoch observation values (Epoch: 2025-10-24T19:13:18.324Z)
Latitude
-0.00001°
Longitude
61.72115°
Altitude
465.52 km
Speed
7.633 km/s
True Right ascension
01h 33m 57s
True Declination
0° 00' 00"
Sunlit
Object was in full shadow at epoch
Visualization orbit readout
Latitude
Unknown
Longitude
Unknown
Altitude
Unknown
Speed
Unknown
Apparent Right ascension
Unknown
Apparent Declination
Unknown
Sunlit
N/A
Visualization observer readout
Local Sidereal Time
20:07:16
Azimuth
Unknown
Elevation
Unknown
Doppler factor
Unknown
Orbital elements
Apogee altitude
460.66 km
Perigee altitude
457.104 km
Semi-major axis
6,837.019 km
Eccentricity
0.00026
Inclination
97.7036°
RAAN
23.4881°
Arg. of periapsis
253.9078°
True anomaly
106.21641°
Mean anomaly
106.1878°
Eccentric anomaly
106.20211°
Mean motion
3.83922 °/min
Orbital period
93.77 mins
BSTAR
0.0033877
Loading maneuver chart data...
Computing Atmospheric mass density...
Loading historical data...
Loading historical data...
Loading historical data...
Loading historical data...
Loading historical data...
Loading historical data...
Loading historical data...

Documentation

Showing up to 5 results
|